Find Starlink 33622

NORAD ID: 63066 Int'l Des: 2025-035 Owner: SPXS Country: US Constellation: starlink operational
LEOCIRCULAR

当前视图

正在加载3D地球...

About Starlink 33622

Starlink 33622 (NORAD 63066) is a starlink constellation satellite (v2 mini) launched Feb 21, 2025 by SPXS of US. It operates in LEO, CIRCULAR orbit with a mass of 575.00 kg.

即将过境

Passes for default location (London). Set your location on the main map for personalized predictions.

高度历史

Loading altitude history...

两行轨道根数

1 63066U 25035Q 26264.00436141 .00006134 00000-0 23212-3 0 9992
2 63066 43.0039 123.7765 0001773 266.7603 93.3046 15.27600904 89603
Epoch: Sep 21, 2026 • Age: 17 hours

当前状态

高度 484.2 km
远地点 / 近地点 N/A
速度 7.62 km/s
星下点 -9.66°S, 60.13°E
发射日期 Feb 21, 2025
运行时间 1.5 years
类型 internet

技术详情

分类 Payload
质量 575.00 kg
干质量 530.00 kg
长度 0.30 m
跨度 29.00 m
形状 ? Box + pan
制造商 SPXS
平台类型 Starlink V2MO
阶段状态 In Orbit
所有者/国家 SPXS/US

Most Searched